Location: Lansingburgh
(42.7845°N, 73.6696°W)
Time: 05:55:15
(UTC+00:00)

Cosmos 2227 Rocket - Pass Details

Date: 24 January 2020
Orbit: 841 x 843 km, 71.0° (Epoch: 19 February)

Event Time Altitude Azimuth Distance (km) Brightness Sun altitude
Rises 22:54:29 0° 205° (SSW) 3,383 6.0 -10.7°
Reaches altitude 10° 22:56:55 10° 207° (SSW) 2,452 5.3 -11.1°
Maximum altitude 23:02:33 81° 294° (WNW) 857 2.3 -12.1°
Drops below altitude 10° 23:08:14 10° 23° (NNE) 2,466 4.3 -13.1°
Enters shadow 23:09:59 - 24° (NNE) 3,131 4.8 -13.4°
